This demonstration page uses our WeatherBlox Daily Observations layout. Learn more.

Left ArrowRight Arrow

Hourly Observations for March 16, 2015

Temp ( °F °C ) Dew Point ( °F °C ) Humidity (%) Winds ( mph kmh ) Pressure ( in mb ) Visibility ( mi km ) Precip ( " mm )
12:16 am 00:16 Clear 55 13 32 undefined 41 41 SW 14 22 30.12 1020 10 16 N/A
12:36 am 00:36 Clear 55 13 32 undefined 41 41 SW 10 17 30.12 1020 10 16 N/A
12:55 am 00:55 Clear 54 12 32 undefined 44 44 SW 13 20 30.12 1020 10 16 N/A
1:16 am 01:16 Clear 54 12 32 undefined 44 44 SW 12 19 30.12 1020 10 16 N/A
1:36 am 01:36 Clear 54 12 32 undefined 44 44 WSW 10 17 30.12 1020 10 16 N/A
1:55 am 01:55 Clear 54 12 32 undefined 44 44 WSW 9 15 30.15 1021 10 16 N/A
2:16 am 02:16 Clear 54 12 30 -1 41 41 WSW 10 17 30.12 1020 10 16 N/A
2:36 am 02:36 Clear 54 12 32 undefined 44 44 WSW 12 19 30.15 1021 10 16 N/A
2:55 am 02:55 Clear 54 12 30 -1 41 41 WSW 13 20 30.12 1020 10 16 N/A
3:16 am 03:16 Clear 54 12 30 -1 41 41 WSW 15 24 30.12 1020 10 16 N/A
3:35 am 03:35 Clear 54 12 32 undefined 44 44 WSW 14 22 30.12 1020 10 16 N/A
3:56 am 03:56 Clear 52 11 32 undefined 47 47 WSW 14 22 30.12 1020 10 16 N/A
4:16 am 04:16 Clear 52 11 32 undefined 47 47 WSW 14 22 30.12 1020 10 16 N/A
4:35 am 04:35 Clear 52 11 32 undefined 47 47 WSW 12 19 30.12 1020 10 16 N/A
4:56 am 04:56 Clear 52 11 32 undefined 47 47 WSW 13 20 30.12 1020 10 16 N/A
5:16 am 05:16 Clear 52 11 32 undefined 47 47 WSW 13 20 30.09 1019 10 16 N/A
5:35 am 05:35 Clear 52 11 32 undefined 47 47 WSW 12 19 30.09 1019 10 16 N/A
5:56 am 05:56 Clear 50 10 32 undefined 50 50 WSW 13 20 30.09 1019 10 16 N/A
6:16 am 06:16 Clear 50 10 32 undefined 50 50 WSW 16 26 30.09 1019 10 16 N/A
6:35 am 06:35 Clear 50 10 32 undefined 50 50 WSW 14 22 30.09 1019 10 16 N/A
6:56 am 06:56 Clear 52 11 30 -1 44 44 WSW 14 22 30.09 1019 10 16 N/A
7:16 am 07:16 Clear 50 10 32 undefined 50 50 WSW 14 22 30.09 1019 10 16 N/A
7:35 am 07:35 Clear 50 10 30 -1 47 47 WSW 15 24 30.09 1019 10 16 N/A
7:56 am 07:56 Sunny 50 10 32 undefined 50 50 WSW 13 20 30.09 1019 10 16 N/A
8:16 am 08:16 Sunny 50 10 32 undefined 50 50 W 13 20 30.09 1019 10 16 N/A
8:35 am 08:35 Sunny 50 10 32 undefined 50 50 W 13 20 30.09 1019 10 16 N/A
8:56 am 08:56 Sunny 50 10 32 undefined 50 50 W 13 20 30.09 1019 10 16 N/A
9:16 am 09:16 Sunny 52 11 32 undefined 47 47 W 10 17 30.09 1019 10 16 N/A
9:35 am 09:35 Sunny 54 12 32 undefined 44 44 WSW 12 19 30.09 1019 10 16 N/A
9:56 am 09:56 Sunny 55 13 32 undefined 41 41 WSW 13 20 30.06 1018 10 16 N/A
10:15 am 10:15 Sunny 57 14 32 undefined 39 39 W 15 24 30.06 1018 10 16 N/A
10:35 am 10:35 Sunny 59 15 32 undefined 36 36 W 15 24 30.06 1018 10 16 N/A
10:56 am 10:56 Sunny 61 16 30 -1 31 31 W 16 26 30.06 1018 10 16 N/A
11:15 am 11:15 Sunny 63 17 28 -2 27 27 W 17 28 30.06 1018 10 16 N/A
11:35 am 11:35 Sunny 63 17 30 -1 30 30 W 15 24 30.06 1018 10 16 N/A
11:56 am 11:56 Sunny 64 18 28 -2 26 26 WNW 18 30 30.06 1018 10 16 N/A
12:15 pm 12:15 Sunny 66 19 27 -3 22 22 WNW 13 20 30.06 1018 10 16 N/A
12:35 pm 12:35 Sunny 68 20 27 -3 21 21 WNW 9 15 30.03 1017 10 16 N/A
12:56 pm 12:56 Sunny 68 20 27 -3 21 21 W 9 15 30.03 1017 10 16 N/A
1:15 pm 13:15 Sunny 70 21 27 -3 20 20 W 9 15 30.00 1016 10 16 N/A
1:35 pm 13:35 Sunny 70 21 27 -3 20 20 WSW 9 15 30.00 1016 10 16 N/A
1:55 pm 13:55 Sunny 70 21 28 -2 21 21 WSW 12 19 29.97 1015 10 16 N/A
2:16 pm 14:16 Sunny 70 21 28 -2 21 21 WSW 14 22 29.97 1015 10 16 N/A
2:36 pm 14:36 Sunny 70 21 27 -3 20 20 WSW 10 17 29.97 1015 10 16 N/A
2:55 pm 14:55 Sunny 72 22 27 -3 19 19 WSW 9 15 29.97 1015 10 16 N/A
3:16 pm 15:16 Sunny 72 22 28 -2 20 20 WSW 12 19 29.94 1014 10 16 N/A
3:35 pm 15:35 Sunny 72 22 28 -2 20 20 WSW 15 24 29.94 1014 10 16 N/A
3:55 pm 15:55 Sunny 72 22 28 -2 20 20 SW 16 26 29.94 1014 10 16 N/A
4:16 pm 16:16 Sunny 72 22 28 -2 20 20 WSW 17 28 29.91 1013 10 16 N/A
4:35 pm 16:35 Sunny 72 22 30 -1 22 22 WSW 14 22 29.91 1013 10 16 N/A
4:56 pm 16:56 Sunny 72 22 30 -1 22 22 WSW 17 28 29.91 1013 10 16 N/A
5:16 pm 17:16 Sunny 72 22 28 -2 20 20 W 20 31 29.91 1013 10 16 N/A
5:35 pm 17:35 Sunny 70 21 32 undefined 25 25 WSW 16 26 29.91 1013 10 16 N/A
5:56 pm 17:56 Sunny 70 21 34 1 27 27 WSW 13 20 29.88 1012 10 16 N/A
6:16 pm 18:16 Sunny 70 21 34 1 27 27 WSW 13 20 29.88 1012 10 16 N/A
6:35 pm 18:35 Sunny 70 21 34 1 27 27 SW 9 15 29.88 1012 10 16 N/A
6:56 pm 18:56 Sunny 70 21 32 undefined 25 25 SW 12 19 29.85 1011 10 16 N/A
7:16 pm 19:16 Sunny 68 20 32 undefined 26 26 SW 10 17 29.85 1011 10 16 N/A
7:35 pm 19:35 Sunny 68 20 32 undefined 26 26 SW 10 17 29.85 1011 10 16 N/A
7:56 pm 19:56 Clear 64 18 36 2 34 34 SW 12 19 29.88 1012 10 16 N/A
8:16 pm 20:16 Clear 64 18 36 2 34 34 SW 13 20 29.88 1012 10 16 N/A
8:35 pm 20:35 Clear 64 18 37 3 37 37 SW 12 19 29.88 1012 10 16 N/A
8:56 pm 20:56 Clear 64 18 37 3 37 37 SSW 10 17 29.88 1012 10 16 N/A
9:16 pm 21:16 Clear 63 17 39 4 42 42 SW 12 19 29.88 1012 10 16 N/A
9:35 pm 21:35 Clear 63 17 39 4 42 42 SW 12 19 29.88 1012 10 16 N/A
9:56 pm 21:56 Clear 63 17 39 4 42 42 SSW 12 19 29.88 1012 10 16 N/A
10:16 pm 22:16 Clear 63 17 41 5 45 45 SSW 10 17 29.88 1012 10 16 N/A
10:35 pm 22:35 Clear 61 16 41 5 48 48 SW 10 17 29.88 1012 10 16 N/A
10:56 pm 22:56 Clear 61 16 41 5 48 48 SW 9 15 29.88 1012 10 16 N/A
11:16 pm 23:16 Clear 59 15 41 5 51 51 SW 9 15 29.88 1012 10 16 N/A
11:35 pm 23:35 Clear 61 16 41 5 48 48 SW 12 19 29.88 1012 10 16 N/A
11:56 pm 23:56 Clear 61 16 39 4 45 45 SW 13 20 29.88 1012 10 16 N/A

Powered by AerisWeather